GW1637 Weather Reports


time (UTC)temp
F
wind
direction
speed
knots
gust
knots
rain 1hr
in
rain 24hr
in
rain mn
in
humidity
%
barometer
mb
20260505122438 35 319 1.7 4.3 0.00 0.07 0.07 95 1013.3
20260505121935 35 17 6.1 9.6 0.00 0.07 0.07 95 1013.3
20260505121432 35 348 0.9 4.3 0.02 0.07 0.07 95 1013.2
20260505120927 35 349 2.6 4.3 0.02 0.07 0.07 95 1013.3
20260505120425 35 17 4.3 6.1 0.00 0.07 0.07 94 1013.3
20260505115923 36 24 2.6 6.1 0.00 0.07 0.07 94 1013.2
20260505115420 36 294 0.9 6.1 0.02 0.07 0.07 94 1013.2
20260505114918 36 34 3.5 4.3 0.02 0.07 0.07 94 1012.9
20260505114414 36 299 1.7 8.7 0.00 0.07 0.07 94 1012.9
20260505113910 36 348 2.6 6.1 0.02 0.07 0.07 94 1013.0
20260505113407 37 14 1.7 5.2 0.02 0.06 0.06 94 1013.1
20260505112903 37 300 4.3 7.8 0.07 0.06 0.06 93 1013.1
20260505112401 37 54 6.1 7.0 0.12 0.06 0.06 93 1012.8
20260505111856 37 30 3.5 6.1 0.14 0.05 0.05 93 1013.0
20260505111352 37 292 2.6 10.4 0.14 0.04 0.04 93 1012.6
20260505110848 38 57 0.9 12.2 0.09 0.02 0.02 92 1012.8
20260505110345 38 354 4.3 7.8 0.02 0.01 0.01 92 1012.9
20260505101815 40 24 2.6 8.7 0.02 0.01 0.01 93 1011.5
20260505101311 40 357 1.7 9.6 0.00 0.00 0.00 93 1011.5
20260505100807 41 356 4.3 7.8 0.02 0.00 0.00 93 1011.6
20260505100304 41 350 2.6 8.7 0.02 0.00 0.00 93 1011.5
20260505095759 41 0 2.6 12.2 0.00 0.00 0.00 93 1011.5
20260505095257 41 22 3.5 6.1 0.00 0.00 0.00 93 1011.7
20260505094752 41 8 6.1 7.0 0.00 0.00 0.00 93 1011.3
20260505094249 41 320 3.5 6.1 0.00 0.00 0.00 93 1011.2
20260505093745 41 0 1.7 15.6 0.00 0.00 0.00 93 1011.3
20260505093243 41 15 6.1 7.8 0.00 0.00 0.00 92 1011.3
20260505092740 41 292 5.2 13.9 0.00 0.00 0.00 92 1011.6
20260505092238 41 289 0.9 7.0 0.00 0.00 0.00 92 1011.5
20260505091735 41 334 2.6 9.6 0.00 0.00 0.00 92 1011.6
20260505091233 42 309 2.6 7.0 0.00 0.00 0.00 92 1011.1
20260505090730 42 270 1.7 7.8 0.00 0.00 0.00 92 1011.1
20260505090229 42 324 2.6 9.6 0.00 0.00 0.00 92 1011.1
20260505085726 42 352 5.2 7.0 0.00 0.00 0.00 92 1011.3
20260505085224 42 348 5.2 5.2 0.00 0.00 0.00 92 1011.2
20260505084721 42 12 1.7 3.5 0.00 0.00 0.00 92 1011.5
20260505084220 42 347 5.2 10.4 0.00 0.00 0.00 92 1011.2
20260505083716 43 292 6.1 10.4 0.00 0.00 0.00 92 1011.1
20260505083213 46 327 2.6 4.3 0.00 0.00 0.00 93 1011.0
20260505082709 46 28 0.0 1.7 0.00 0.00 0.00 93 1010.7
20260505082207 46 331 0.0 0.9 0.00 0.00 0.00 93 1011.2
20260505081702 46 345 0.0 1.7 0.00 0.00 0.00 93 1011.1
20260505081200 46 0 0.0 1.7 0.00 0.00 0.00 93 1011.2
20260505080657 46 331 0.0 1.7 0.00 0.00 0.00 93 1011.1
20260505080152 46 254 0.0 0.0 0.00 0.00 0.00 93 1011.1
20260505075648 46 254 0.0 0.0 0.00 0.00 0.00 93 1010.7
20260505075146 46 187 0.0 0.0 0.00 0.00 0.00 93 1010.7
20260505074643 46 106 0.0 0.0 0.00 0.00 0.00 93 1010.7
20260505074139 46 106 0.0 0.9 0.00 0.00 0.00 92 1011.0
20260505073637 46 144 0.0 1.7 0.00 0.00 0.00 92 1011.0
20260505073135 46 192 0.9 1.7 0.00 0.00 0.00 92 1011.1
20260505072630 46 209 0.9 1.7 0.00 0.00 0.00 93 1010.9
20260505072127 46 151 0.9 2.6 0.00 0.00 0.00 93 1010.7
20260505071623 46 194 0.0 2.6 0.00 0.00 0.00 93 1010.9
20260505071121 46 132 0.0 1.7 0.00 0.00 0.00 93 1011.1
20260505070618 46 157 0.9 1.7 0.00 0.00 0.00 93 1011.2
20260505070114 46 215 0.0 1.7 0.00 0.00 0.00 93 1011.5
20260505065610 46 225 1.7 1.7 0.00 0.00 0.00 93 1011.3
20260505065107 46 234 0.0 1.7 0.00 0.00 0.00 93 1011.2
20260505064604 46 160 0.9 1.7 0.00 0.00 0.00 93 1011.6
20260505064103 46 180 0.0 0.9 0.00 0.00 0.00 93 1011.3
20260505063559 46 254 0.0 1.7 0.00 0.00 0.00 93 1011.3
20260505063055 46 165 0.0 1.7 0.00 0.00 0.00 93 1011.0
20260505062551 46 229 0.9 0.9 0.00 0.00 0.00 93 1011.3
20260505062049 46 186 0.0 1.7 0.00 0.00 0.00 93 1011.2
20260505061546 46 209 0.0 1.7 0.00 0.00 0.00 93 1011.2
20260505061044 45 90 0.0 0.9 0.00 0.00 0.00 92 1011.2
20260505060541 45 165 0.0 0.9 0.00 0.00 0.00 92 1011.5
20260505060038 46 237 0.0 0.9 0.00 0.16 0.16 92 1011.2
20260505055533 45 165 0.0 0.9 0.00 0.16 0.16 92 1011.3
20260505055030 45 180 0.0 1.7 0.00 0.16 0.16 92 1011.2
20260505054527 45 188 1.7 1.7 0.00 0.16 0.16 92 1011.1
20260505054026 46 209 0.9 1.7 0.00 0.16 0.16 92 1011.5
20260505053522 45 187 1.7 2.6 0.00 0.16 0.16 92 1010.9
20260505053019 46 195 1.7 2.6 0.00 0.16 0.16 92 1011.3
20260505052516 46 180 1.7 2.6 0.00 0.16 0.16 92 1011.3
20260505052014 46 204 1.7 1.7 0.00 0.16 0.16 92 1011.5
20260505051510 46 187 0.9 1.7 0.00 0.16 0.16 92 1011.2
20260505051009 46 166 0.9 2.6 0.00 0.16 0.16 92 1011.5
20260505050506 46 210 1.7 3.5 0.00 0.16 0.16 92 1011.8
20260505041434 46 166 2.6 3.5 0.00 0.16 0.16 92 1012.0
20260505040931 46 192 1.7 1.7 0.00 0.16 0.16 92 1012.2
20260505040429 46 231 1.7 1.7 0.02 0.16 0.16 92 1012.2
20260505035925 46 169 0.9 1.7 0.05 0.15 0.15 91 1012.2
20260505035421 46 220 0.9 2.6 0.14 0.15 0.15 91 1011.8
20260505034919 46 247 1.7 2.6 0.14 0.14 0.14 91 1011.9
20260505034415 46 270 0.0 1.7 0.09 0.13 0.13 90 1011.8
20260505033912 46 110 1.7 1.7 0.09 0.12 0.12 89 1012.0
20260505033409 46 324 1.7 2.6 0.07 0.11 0.11 89 1011.9
20260505032907 46 353 0.0 2.6 0.05 0.10 0.10 89 1012.4
20260505032403 47 325 0.9 10.4 0.07 0.10 0.10 88 1011.9
20260505031900 47 351 3.5 7.0 0.09 0.09 0.09 87 1011.9
20260505031357 48 28 4.3 6.1 0.12 0.09 0.09 86 1011.6
20260505030854 49 265 3.5 6.1 0.12 0.08 0.08 83 1011.5
20260505030350 50 256 2.6 9.6 0.07 0.07 0.07 81 1011.2
20260505025845 50 18 0.0 4.3 0.02 0.06 0.06 78 1011.5
20260505025343 50 286 0.0 3.5 0.00 0.05 0.05 76 1010.9
20260505024842 50 345 0.0 3.5 0.00 0.05 0.05 75 1010.9
20260505024339 50 334 0.9 2.6 0.00 0.05 0.05 73 1010.7
20260505023836 50 322 1.7 4.3 0.00 0.05 0.05 72 1010.4
20260505023333 51 349 2.6 4.3 0.00 0.05 0.05 72 1010.6
20260505022830 51 259 1.7 5.2 0.00 0.05 0.05 71 1010.5
20260505022327 51 337 0.9 7.0 0.00 0.05 0.05 69 1010.2
20260505021825 52 3 2.6 7.0 0.00 0.05 0.05 68 1010.3
20260505021321 52 18 5.2 6.1 0.00 0.05 0.05 65 1009.9
20260505020817 53 351 5.2 8.7 0.00 0.05 0.05 63 1010.2
20260505020313 54 2 2.6 2.6 0.00 0.05 0.05 62 1010.0
20260505015810 54 74 0.0 0.9 0.00 0.05 0.05 61 1010.0
20260505015307 54 119 0.0 1.7 0.00 0.05 0.05 61 1009.9
20260505014804 54 160 0.0 2.6 0.00 0.05 0.05 60 1009.9
20260505014301 54 180 0.9 2.6 0.00 0.05 0.05 60 1009.8
20260505013757 54 154 2.6 2.6 0.00 0.05 0.05 60 1009.8
20260505013254 54 180 0.0 2.6 0.00 0.05 0.05 60 1009.4
20260505012753 54 172 0.0 1.7 0.00 0.05 0.05 59 1009.3
20260505012250 54 120 1.7 1.7 0.00 0.05 0.05 60 1009.8
20260505011745 54 143 1.7 2.6 0.00 0.05 0.05 60 1009.9
20260505011243 55 348 1.7 1.7 0.00 0.05 0.05 60 1009.7
20260505010738 55 28 2.6 3.5 0.00 0.05 0.05 60 1009.8
20260505010235 55 98 3.5 4.3 0.00 0.05 0.05 59 1009.7
20260505005731 55 103 1.7 4.3 0.00 0.05 0.05 60 1009.9
20260505005228 55 79 1.7 2.6 0.00 0.05 0.05 58 1009.6
20260505004726 55 151 2.6 4.3 0.00 0.05 0.05 59 1009.6
20260505004222 54 249 0.9 4.3 0.00 0.05 0.05 61 1009.7
20260505003719 55 188 1.7 8.7 0.00 0.05 0.05 60 1009.7
20260505003217 55 138 2.6 11.3 0.00 0.05 0.05 59 1009.4
20260505002713 57 154 3.5 5.2 0.00 0.05 0.05 54 1010.0
20260505002211 58 150 2.6 5.2 0.00 0.05 0.05 48 1010.3
20260505001708 58 157 0.0 5.2 0.00 0.05 0.05 53 1009.9
20260505001205 58 255 0.0 3.5 0.00 0.05 0.05 52 1010.0
20260505000702 58 90 0.0 2.6 0.00 0.05 0.05 50 1009.8
20260505000200 58 240 6.1 6.1 0.00 0.05 0.05 48 1009.7
20260504235656 59 254 1.7 3.5 0.00 0.05 0.05 48 1009.6
20260504235152 59 270 4.3 5.2 0.00 0.05 0.05 48 1009.4
20260504234650 59 262 1.7 5.2 0.00 0.05 0.05 48 1009.3
20260504234147 59 232 1.7 6.1 0.00 0.05 0.05 47 1009.1
20260504233643 59 292 0.0 8.7 0.00 0.05 0.05 47 1009.3
20260504233139 59 299 3.5 7.0 0.00 0.05 0.05 46 1009.1
20260504232637 59 0 3.5 6.1 0.00 0.05 0.05 46 1009.1
20260504232133 59 346 7.8 9.6 0.00 0.05 0.05 46 1009.0
20260504231630 59 304 3.5 9.6 0.00 0.05 0.05 46 1009.0
20260504231126 59 335 3.5 7.0 0.00 0.05 0.05 46 1008.6
20260504230623 60 356 4.3 7.8 0.00 0.05 0.05 46 1008.7
20260504230122 60 274 2.6 10.4 0.00 0.05 0.05 46 1008.6
20260504225619 60 347 4.3 14.8 0.00 0.05 0.05 46 1008.7
20260504225115 62 320 2.6 13.0 0.00 0.05 0.05 42 1008.9
20260504224612 62 59 5.2 8.7 0.00 0.05 0.05 40 1009.0
20260504224109 63 341 1.7 4.3 0.00 0.05 0.05 40 1009.0
20260504223606 61 11 5.2 8.7 0.00 0.05 0.05 41 1009.0
20260504223102 60 350 3.5 8.7 0.00 0.05 0.05 42 1009.0
20260504222559 60 307 3.5 9.6 0.00 0.05 0.05 44 1009.1
20260504222056 60 349 3.5 12.2 0.00 0.05 0.05 43 1009.1
20260504221553 61 351 6.1 7.0 0.00 0.05 0.05 42 1008.7
20260504221050 61 331 0.0 13.0 0.00 0.05 0.05 42 1008.9
20260504220547 61 22 2.6 8.7 0.00 0.05 0.05 41 1008.7
20260504220044 61 357 10.4 15.6 0.00 0.05 0.05 40 1008.6
20260504215540 61 23 7.0 11.3 0.00 0.05 0.05 40 1007.9
20260504215038 61 345 7.0 14.8 0.00 0.05 0.05 39 1008.3
20260504214533 61 339 4.3 14.8 0.00 0.05 0.05 39 1007.9
20260504214030 62 334 15.6 18.2 0.00 0.05 0.05 38 1007.8
20260504213526 66 327 3.5 8.7 0.00 0.05 0.05 31 1007.3
20260504213024 66 78 2.6 6.1 0.00 0.05 0.05 34 1007.2
20260504212519 68 117 2.6 2.6 0.00 0.05 0.05 31 1007.2
20260504212017 67 90 1.7 5.2 0.00 0.05 0.05 33 1007.6
20260504211514 67 107 1.7 4.3 0.00 0.05 0.05 33 1007.7
20260504211011 66 90 1.7 4.3 0.00 0.05 0.05 32 1007.4
20260504210508 65 90 1.7 6.1 0.00 0.05 0.05 33 1007.7
20260504210005 67 101 4.3 6.1 0.00 0.05 0.05 32 1007.9
20260504205502 68 90 0.0 3.5 0.00 0.05 0.05 32 1007.8
20260504205000 67 82 2.6 6.1 0.00 0.05 0.05 34 1007.8
20260504204458 68 90 2.6 5.2 0.00 0.05 0.05 34 1007.7
20260504203957 67 110 3.5 6.1 0.00 0.05 0.05 34 1008.1
20260504203455 66 78 2.6 8.7 0.00 0.05 0.05 34 1008.4
20260504202950 67 335 0.0 3.5 0.00 0.05 0.05 35 1008.4
20260504202447 64 334 0.0 4.3 0.00 0.05 0.05 35 1008.5
20260504201944 62 54 0.9 3.5 0.00 0.05 0.05 40 1008.7
20260504201441 61 40 4.3 7.8 0.00 0.05 0.05 37 1008.9
20260504200939 60 284 4.3 8.7 0.00 0.05 0.05 44 1009.0
20260504200435 60 280 1.7 3.5 0.00 0.05 0.05 52 1009.2
20260504195932 60 279 2.6 4.3 0.00 0.05 0.05 48 1009.0
20260504195428 60 39 2.6 7.0 0.00 0.05 0.05 44 1009.0
20260504194924 59 99 4.3 7.0 0.00 0.05 0.05 45 1008.7
20260504194420 59 92 4.3 7.8 0.00 0.05 0.05 50 1008.7
20260504193916 58 90 6.1 7.0 0.00 0.05 0.05 56 1009.0
20260504193414 58 94 2.6 5.2 0.00 0.05 0.05 54 1009.2
20260504192913 58 110 1.7 4.3 0.00 0.05 0.05 51 1009.1
20260504192409 56 78 0.9 6.1 0.02 0.05 0.05 61 1009.4
20260504191908 56 74 0.0 1.7 0.09 0.05 0.05 68 1009.2
20260504191406 55 239 1.7 4.3 0.19 0.04 0.04 63 1009.3
20260504190901 57 172 3.5 9.6 0.14 0.02 0.02 59 1009.1
20260504190357 58 106 6.1 13.9 0.07 0.01 0.01 51 1008.9
20260504185854 61 137 7.8 16.5 0.00 0.00 0.00 45 1008.6
20260504185351 65 90 7.0 13.9 0.00 0.00 0.00 33 1008.1
20260504184847 66 90 5.2 5.2 0.00 0.00 0.00 27 1007.9
20260504184343 66 135 4.3 6.1 0.00 0.00 0.00 26 1008.0
20260504183839 67 100 3.5 4.3 0.00 0.00 0.00 27 1007.9
20260504183337 67 80 1.7 6.1 0.00 0.00 0.00 26 1007.7
20260504182834 68 5 0.9 3.5 0.00 0.00 0.00 26 1007.7
20260504182331 68 3 2.6 5.2 0.00 0.00 0.00 26 1007.8
20260504181828 68 55 0.0 4.3 0.00 0.00 0.00 26 1007.7
20260504181325 69 23 0.0 5.2 0.00 0.00 0.00 25 1007.7
20260504180824 69 21 2.6 8.7 0.00 0.00 0.00 26 1007.6
20260504180322 69 17 3.5 7.0 0.00 0.00 0.00 25 1007.7
20260504175820 69 16 2.6 12.2 0.00 0.00 0.00 26 1007.7
20260504175316 70 103 0.9 9.6 0.00 0.00 0.00 26 1007.8
20260504174815 71 1 4.3 7.0 0.00 0.00 0.00 25 1007.8
20260504174312 71 94 2.6 2.6 0.00 0.00 0.00 27 1007.9
20260504173809 70 126 5.2 6.1 0.00 0.00 0.00 26 1008.1
20260504173305 75 2 2.6 3.5 0.00 0.00 0.00 24 1008.3
20260504172803 72 67 2.6 4.3 0.00 0.00 0.00 25 1008.3
20260504172259 71 117 0.9 5.2 0.00 0.00 0.00 26 1008.3
20260504171755 70 81 4.3 7.0 0.00 0.00 0.00 26 1008.6
20260504171252 70 82 0.0 7.0 0.00 0.00 0.00 27 1008.5
20260504170749 69 81 1.7 4.3 0.00 0.00 0.00 27 1008.4
20260504170246 69 354 3.5 7.8 0.00 0.00 0.00 27 1008.7
20260504160205 65 244 4.3 7.8 0.00 0.00 0.00 29 1009.2
20260504151133 63 270 2.6 5.2 0.00 0.00 0.00 29 1009.6
20260504150630 63 266 1.7 9.6 0.00 0.00 0.00 29 1009.6
20260504150127 62 243 2.6 11.3 0.00 0.00 0.00 29 1009.6
20260504141055 60 239 3.5 12.2 0.00 0.00 0.00 28 1009.7
20260504140552 60 273 2.6 7.0 0.00 0.00 0.00 28 1009.4
20260504130516 53 151 2.6 3.5 0.00 0.00 0.00 37 1009.6